Location: Duac?
(36.9744°N, 30.6500°E)
Time: 00:46:02
(UTC+00:00)

USA 238 - Pass Details

Date: 05 August 2024
Orbit: 916 x 1295 km, 63.4° (Epoch: 11 August)

Event Time Altitude Azimuth Distance (km) Brightness Sun altitude
Rises 20:33:56 0° 329° (NNW) 4,013 7.8 -32.4°
Reaches altitude 10° 20:36:35 10° 332° (NNW) 3,099 7.0 -32.6°
Maximum altitude 20:44:06 69° 56° (NE) 1,324 4.0 -33.2°
Enters shadow 20:44:18 68° 65° (ENE) 1,328 4.0 -33.2°
